Home > Weather > Riga > Past weeks

Flag for Latvia Past Weather in Riga, Latvia — Yesterday and Last 2 Weeks

Now
63 °F

Passing clouds.


Feels Like: 63 °F
Forecast: 54 / 66 °F
Wind: 9 mph from Southwest

Location: Riga Airport

Current Time: Aug 30, 2016 at 4:35:39 AM

Latest Report: Aug 30, 2016 at 3:50 AM


Visibility: N/A

Pressure: 29.74 "Hg

Humidity: 83%

Dew Point: 57 °F

Location of RigaLocation

Past Weather in Riga — Graph

°F

Riga Temperature Yesterday

Maximum temperature yesterday: 79 °F (at 3:20 PM)
Minimum temperature yesterday: 59 °F (at 2:50 AM)
Average temperature yesterday: 66 °F

High & Low Weather Summary for the Past Weeks

 TemperatureHumidityPressure
High81 °F (Aug 21, 1:50 PM)100% (Aug 15, 10:50 PM)30.30 "Hg (Aug 15, 10:50 PM)
Low48 °F (Aug 25, 5:50 AM)33% (Aug 27, 7:20 PM)29.62 "Hg (Aug 17, 6:50 AM)
Average63 °F82%29.99 "Hg
* Reported Aug 15 3:20 AM — Aug 30 3:20 AM, Riga, Weather by CustomWeather, © 2016

Note: Actual official high and low records may vary slightly from our data, if they occured in-between our weather recording intervals... More about our weather records

Advertising

Riga Weather History for the Previous 24 Hours

Scroll right to see more
 ConditionsComfort  
Time TempWeatherWind HumidityBarometerVisibility
3:20 AM
Tue, Aug 30
63 °FPassing clouds.10 mph88%29.74 "HgN/A
2:50 AM63 °FPassing clouds.10 mph88%29.71 "HgN/A
2:20 AM63 °FPassing clouds.10 mph83%29.71 "HgN/A
1:50 AM63 °FPassing clouds.10 mph88%29.71 "HgN/A
1:20 AM63 °FPartly cloudy.10 mph88%29.71 "HgN/A
12:50 AM64 °FPartly cloudy.10 mph83%29.71 "HgN/A
12:20 AM64 °FPartly cloudy.10 mph78%29.71 "HgN/A
11:50 PM
Mon, Aug 29
64 °FPartly cloudy.12 mph83%29.71 "HgN/A
11:20 PM64 °FPartly cloudy.13 mph83%29.71 "HgN/A
10:50 PM64 °FClear.10 mph83%29.71 "Hg10 mi
10:20 PM64 °FClear.13 mph83%29.71 "Hg10 mi
9:50 PM64 °FPassing clouds.10 mph78%29.71 "HgN/A
9:20 PM64 °FPassing clouds.9 mph78%29.71 "HgN/A
8:50 PM66 °FScattered clouds.10 mph73%29.71 "HgN/A
8:20 PM66 °FScattered clouds.10 mph78%29.71 "HgN/A
7:50 PM68 °FScattered clouds.12 mph69%29.71 "HgN/A
7:20 PM68 °FScattered clouds.14 mph69%29.71 "HgN/A
6:50 PM70 °FScattered clouds.12 mph64%29.71 "HgN/A
6:20 PM72 °FBroken clouds.12 mph61%29.71 "HgN/A
5:50 PM72 °FPassing clouds.15 mph65%29.71 "HgN/A
5:20 PM73 °FPassing clouds.16 mph65%29.71 "HgN/A
4:50 PM73 °FPartly sunny.13 mph69%29.71 "HgN/A
4:20 PM77 °FPartly sunny.10 mph57%29.68 "HgN/A
3:50 PM79 °FScattered clouds.10 mph58%29.68 "HgN/A
3:20 PM79 °FScattered clouds.12 mph61%29.68 "HgN/A
2:50 PM77 °FPassing clouds.13 mph61%29.68 "HgN/A
2:20 PM77 °FPassing clouds.14 mph61%29.68 "HgN/A
1:50 PM77 °FPassing clouds.14 mph65%29.68 "HgN/A
1:20 PM75 °FPassing clouds.10 mph74%29.68 "HgN/A
12:50 PM72 °FSunny.13 mph78%29.68 "Hg10 mi
12:20 PM72 °FSunny.13 mph78%29.68 "Hg10 mi
11:50 AM70 °FPassing clouds.9 mph78%29.71 "HgN/A
11:20 AM70 °FSunny.8 mph73%29.71 "Hg10 mi
10:50 AM68 °FPassing clouds.6 mph78%29.71 "HgN/A
10:20 AM68 °FPassing clouds.7 mph78%29.74 "HgN/A
9:50 AM66 °FSunny.9 mph83%29.74 "Hg10 mi
9:20 AM64 °FScattered clouds.9 mph88%29.74 "HgN/A
8:50 AM63 °FScattered clouds.7 mph83%29.74 "HgN/A
8:20 AM61 °FPassing clouds.6 mph88%29.74 "HgN/A
7:50 AM59 °FPassing clouds.7 mph88%29.77 "HgN/A
7:20 AM59 °FClear.5 mph88%29.77 "Hg10 mi
6:50 AM59 °FClear.6 mph82%29.80 "Hg10 mi
6:20 AM59 °FPassing clouds.5 mph82%29.80 "HgN/A
5:50 AM59 °FPassing clouds.5 mph82%29.80 "HgN/A
5:20 AM59 °FPassing clouds.5 mph82%29.80 "HgN/A
4:50 AM59 °FPassing clouds.3 mph82%29.83 "HgN/A
4:20 AM59 °FClear.5 mph88%29.86 "Hg10 mi
Weather by CustomWeather, © 2016

See weather overviewHow to use our weather pages